Location: Altenst�hlen
(53.5567°N, 8.9425°E)
Time: 10:19:22
(UTC+00:00)

deb Kosmos-1763 - Pass Details

Date: 23 October 2019
Orbit: 472 x 486 km, 74.0° (Epoch: 21 November)

Event Time Altitude Azimuth Distance (km) Brightness Sun altitude
Rises 18:12:18 0° 334° (NNW) 2,577 8.2 -18.7°
Reaches altitude 10° 18:14:27 10° 336° (NNW) 1,691 7.2 -19.0°
Maximum altitude 18:18:11 77° 62° (ENE) 508 3.9 -19.5°
Enters shadow 18:18:46 60° 130° (SE) 567 4.0 -19.6°
